Location: Cornospital
(48.0620°N, 3.3837°W)
Time: 21:07:21
(UTC+00:00)

GEOS 3 Rocket - Pass Details

Date: 17 June 2021
Orbit: 780 x 839 km, 115.0° (Epoch: 03 August)

Event Time Altitude Azimuth Distance (km) Brightness Sun altitude
Exits shadow 23:52:24 29° 200° (SSW) 1,492 4.5 -18.4°
Maximum altitude 23:54:11 37° 239° (WSW) 1,284 4.4 -18.4°
Drops below altitude 10° 23:59:07 10° 306° (NW) 2,454 6.6 -18.4°
Sets 00:01:37 0° 315° (NW) 3,387 7.6 -18.5°
